Regional Weather Roundup
Issued by NWS Jackson, KY

Home | Current Version | Previous Version | Text Only | Print | Product List | Glossary Off
Versions: 1 2 3 4 5 6 7 8 9 10 11 12 13 14 15 16 17 18 19 20 21 22 23 24 25 26 27 28 29 30 31 32 33 34 35 36 37 38 39 40 41 42 43 44 45 46 47 48 49 50

000
ASUS43 KJKL 272310
RWRJKL

EAST KENTUCKY HOURLY WEATHER ROUNDUP
NATIONAL WEATHER SERVICE JACKSON KY
700 PM EDT FRI MAY 27 2016

NOTE: "FAIR" INDICATES FEW OR NO CLOUDS BELOW 12,000 FEET WITH
NO SIGNIFICANT WEATHER AND/OR OBSTRUCTIONS TO VISIBILITY.

* THESE REPORTS ARE NOT UNDER NWS QUALITY CONTROL AND MAY NOT
  REPORT WEATHER SUCH AS PRECIPITATION AND FOG.

KYZ079-080-083-085-087-088-110-112-115-119-120-280000
...EASTERN KENTUCKY...

CITY           SKY/WX    TMP DP  RH WIND       PRES   REMARKS
JACKSON        LGT RAIN  69  62  78 E3        30.03F
LONDON         PTSUNNY   79  63  57 S10       30.01F
SOMERSET*      PTSUNNY   77  64  65 W8G16     30.01R
MONTICELLO*    MOSUNNY   76  71  85 VRB6      30.01S
WILLIAMSBURG*  MOCLDY    70  66  88 SE5       30.02F
MIDDLESBORO*   CLOUDY    70  68  93 CALM      30.05S
HARLAN APT*    CLOUDY    72  63  73 NE7       30.07R
HAZARD APT*    CLEAR     72  70  94 CALM      30.03F
BLACK MTN*       N/A     64  59  82 S7          N/A
PIKE CO APT*     N/A     78  67  67 CALM      30.04S
BIG SANDY APT* CLEAR     78  67  68 CALM      30.03S
MOREHEAD APT*  CLEAR     82  66  57 CALM      30.02F
ASHLAND*       SUNNY     84  66  54 CALM      29.96F
$$

KYZ035-036-041-042-044-050-067-078-099-280000
...CENTRAL KENTUCKY...

CITY           SKY/WX    TMP DP  RH WIND       PRES   REMARKS
MT STERLING*   CLOUDY    82  64  54 SW3       30.02S
FLEMING/MASON* MOSUNNY  N/A N/A N/A SW5       30.01S
RICHMOND*      MOSUNNY   84  64  51 CALM      29.99F
LEXINGTON      MOSUNNY   83  65  54 S6        29.99F
FRANKFORT      MOSUNNY   84  64  50 S8        29.96F
LOUISVILLE     PTSUNNY   86  63  45 S13G20    29.93F
LEBANON*         N/A     82  66  57 SE3       29.97F
GLASGOW*       SUNNY     84  64  50 S8        29.94F
BOWLING GREEN  MOSUNNY   84  64  50 S6        29.93F
$$

KYZ091>093-OHZ055-061-077-WVZ005-015-034-035-042-280000
...SOUTHERN OHIO/WEST VIRGINIA...

CITY           SKY/WX    TMP DP  RH WIND       PRES   REMARKS
COVINGTON      PTSUNNY   83  64  52 SW7       29.97F
COLUMBUS       CLOUDY    86  60  41 S7        29.97F
DAYTON         PTSUNNY   83  61  47 S13       29.98S
WILMINGTON     CLOUDY    83  65  54 SW8       29.98F
HUNTINGTON       N/A     86  66  51 CALM      29.98F
CHARLESTON       N/A     85  64  49 SE3       30.02R
PINEVILLE*       N/A     70  66  88 MISG      30.13S FOG
BECKLEY          N/A     72  60  66 NW5       30.12R
BLUEFIELD        N/A     74  58  57 VRB3      30.14S
LOGAN CO APT*    N/A     81  64  57 VRB3      30.06R
$$

VAZ002-007-008-TNZ017-027-036-066-071-280000
...SOUTHWEST VIRGINIA/EAST TENNESSEE...

CITY           SKY/WX    TMP DP  RH WIND       PRES   REMARKS
WISE*          TSTM      66  64  94 SW5       30.14F
JONESVILLE*      N/A     73  66  78 CALM      30.08S
ABINGDON*      CLOUDY    75  65  69 W10G16    30.11R
BRISTOL        CLOUDY    70  66  87 CALM      30.07F
SEVIERVILLE*   MOCLDY    75  64  69 CALM      30.04S
KNOXVILLE      CLOUDY    74  68  81 SE6       30.02F
OAK RIDGE      CLOUDY    76  68  76 CALM      30.03F
CROSSVILLE     CLOUDY    76  66  71 VRB7      30.04F
NASHVILLE      CLOUDY    85  65  51 W5        29.93F
$$

...KEY TO REMARKS...
VSB - VISIBILITY IN MILES
WCI - WIND CHILL INDEX
HX  - HEAT INDEX

$$



USA.gov is the U.S. government's official web portal to all federal, state and local government web resources and services.